Location: Newark
(39.6867°N, 100.6772°W)
Time: 06:40:36
(UTC+00:00)

Tiros 1 - Visible Passes

Search period start: 16 October 2019 00:00
Search period end: 26 October 2019 00:00
Orbit: 630 x 664 km, 48.4° (Epoch: 14 October)

Date Brightness Start Highest point End Pass type
(mag) Time Alt. Az. Time Alt. Az. Time Alt. Az.
16 Oct 9.2 09:57:09 26° ENE 09:57:09 26° ENE 09:59:14 10° ENE visible
16 Oct 8.2 11:34:49 23° WNW 11:37:03 34° NNW 11:41:26 10° NE visible
17 Oct 8.5 10:22:12 35° NNE 10:22:12 35° NNE 10:25:18 10° NE visible
17 Oct 8.5 11:59:52 12° WNW 12:03:34 29° N 12:07:46 10° ENE visible
18 Oct 8.2 10:47:14 34° N 10:47:14 34° N 10:51:23 10° NE visible
18 Oct 8.5 12:25:52 10° NW 12:30:07 30° N 12:34:22 10° ENE visible
19 Oct 10.1 09:34:34 14° NE 09:34:34 14° NE 09:35:16 10° NE visible
19 Oct 8.5 11:12:14 26° NNW 11:13:29 29° N 11:17:42 10° ENE visible
20 Oct 9.5 09:59:34 20° NE 09:59:34 20° NE 10:01:21 10° NE visible
20 Oct 8.6 11:37:14 17° NW 11:40:02 29° N 11:44:16 10° ENE visible
21 Oct 8.9 10:24:34 26° NNE 10:24:34 26° NNE 10:27:37 10° NE visible
21 Oct 8.3 12:02:14 11° NW 12:06:32 36° NNE 12:10:59 10° E visible
22 Oct 8.5 10:49:35 29° N 10:49:57 29° N 10:54:10 10° ENE visible
22 Oct 7.8 12:28:09 10° NW 12:32:53 55° NNE 12:37:37 10° ESE visible
23 Oct 10.1 09:36:57 13° NE 09:36:57 13° NE 09:37:33 10° NE visible
23 Oct 8.4 11:14:37 26° NNW 11:16:28 35° NNE 11:20:53 10° E visible
24 Oct 9.5 10:02:02 21° NE 10:02:02 21° NE 10:04:04 10° ENE visible
24 Oct 7.8 11:39:43 20° NW 11:42:50 52° NNE 11:47:32 10° E visible
25 Oct 8.7 10:27:11 32° NE 10:27:11 32° NE 10:30:47 10° E visible
25 Oct 7.2 12:04:51 14° WNW 12:09:01 89° SSW 12:13:50 10° ESE visible
